Flag for China Weather past 2 weeks in Xiamen, Fujian, China

Now
68 °F

Fog.


Feels Like: 68 °F
Forecast: 66 / 81 °F
Wind: 1 mph from Northeast

Location: Xiamen Airport

Current Time: Apr 1, 2015 at 6:44:25 AM

Latest Report: Apr 1, 2015 at 6:00 AM


Visibility: 3 mi

Pressure: 29.92 "Hg

Humidity: 100%

Dew point: 68 °F

Location of XiamenLocation

Historic Weather in Xiamen — Graph

°F

Xiamen temperature yesterday

Maximum temperature yesterday: 84 °F (at 11:00 AM)
Minimum temperature yesterday: 68 °F (at 12:00 AM)
Average temperature yesterday: 75 °F

Past Weeks' High & Low Weather Summary

 TemperatureHumidityPressure
High88 °F (Mar 19, 2:00 PM)100% (Mar 17, 5:00 AM)30.39 "Hg (Mar 17, 5:00 AM)
Low54 °F (Mar 23, 4:00 PM)28% (Mar 23, 5:00 AM)29.80 "Hg (Mar 18, 3:00 PM)
Average66 °F75%30.08 "Hg
* Reported Mar 17 5:00 AM — Apr 1 5:00 AM, Xiamen, Weather by CustomWeather, © 2015

Note: Actual official high and low records may vary slightly from our data, if they occured in-between our weather recording intervals... More about our weather records

Advertising

Xiamen weather history for previous 24 hours

 ConditionsComfort  
Time TempWeatherWind HumidityBarometerVisibility
5:00 AM
Wed, Apr 1
66 °FFog.1 mph100%29.92 "Hg3 mi
4:00 AM68 °FPassing clouds.1 mph100%29.89 "Hg5 mi
3:00 AM70 °FPassing clouds.1 mph100%29.89 "Hg4 mi
2:00 AM70 °FFog.1 mph100%29.92 "Hg3 mi
1:00 AM70 °FFog.3 mph100%29.92 "Hg3 mi
12:00 AM68 °FFog.1 mph100%29.95 "Hg3 mi
11:00 PM
Tue, Mar 31
70 °FFog.3 mph100%29.95 "Hg2 mi
10:00 PM70 °FFog.3 mph100%29.95 "Hg2 mi
9:00 PM72 °FClear.1 mph94%29.92 "Hg10 mi
8:00 PM75 °FPassing clouds.3 mph89%29.89 "HgN/A
7:00 PM75 °FPassing clouds.3 mph89%29.89 "HgN/A
6:00 PM79 °FPassing clouds.1 mph79%29.86 "HgN/A
5:00 PM81 °FPassing clouds.10 mph74%29.86 "HgN/A
4:00 PM82 °FPassing clouds.13 mph70%29.86 "HgN/A
3:00 PM84 °FPassing clouds.15 mph62%29.89 "HgN/A
2:00 PM84 °FScattered clouds.13 mph66%29.89 "HgN/A
1:00 PM84 °FPartly sunny.8 mph62%29.92 "HgN/A
12:00 PM84 °FPartly sunny.6 mph66%29.95 "HgN/A
11:00 AM84 °FScattered clouds.8 mph66%29.98 "HgN/A
10:00 AM81 °FScattered clouds.3 mph70%30.01 "Hg4 mi
9:00 AM77 °FScattered clouds.3 mph79%30.01 "Hg4 mi
8:00 AM73 °FFog.1 mph78%30.01 "Hg2 mi
7:00 AM70 °FFog.1 mph88%29.98 "Hg2 mi
6:00 AM68 °FFog.No wind94%29.95 "Hg2 mi
Weather by CustomWeather, © 2015

See weather overviewHow to use our weather pages